Terug naar catalogus

CZ-3C R/B

unknownUNKNOWN
NORAD 37175·ROCKET BODY·🇨🇳 China

Gelanceerd Oct 1, 2010 vanaf Xichang Satellite Launch Center

Loading…

Volgende Passages (komende 24 uur)

TLE

VerouderdSource: Space-Track

Epoch: Oct 1, 2010, 10:34 UTC

1 37175U 10050B   10274.44032264 -.00000212 +12725-5 +00000-0 0  9996
2 37175 032.3647 328.2319 1929833 063.2084 179.2559 12.98827208000012

Volg CZ-3C R/B in realtime met AllMySat

Download on the App Store